DateTime,F1_A11,F1_S11,BsB_S11,BsG_S11,BsR_S11,BbsB_S11,BbsG_S11,BbsR_S11,BaB_A11,BaG_A11,BaR_A11,T_S11,U_S11,P_S11,T1_A11
2016-06-01T00:00:00Z,,,,,,,,,,,,,,,34.3
2016-06-01T00:04:11Z,0000380,01000600,0002.46,0001.24,0000.97,-000.46,-000.53,0000.05,0000.29,-000.40,-000.80,25.8,00.5,0668.0,34.3
2016-06-01T00:06:00Z,0000380,01000600,0002.57,0001.16,0001.15,0000.19,0000.11,0000.27,0000.13,0000.07,-000.06,25.8,00.5,0668.1,34.3
2016-06-01T00:07:00Z,0000380,01000600,0002.67,0001.22,0001.49,0000.88,-000.08,0000.38,0000.04,0000.37,0000.41,25.8,00.6,0668.0,34.3
2016-06-01T00:08:00Z,0000380,01000600,0001.74,0001.19,0001.59,0000.82,0000.17,0000.38,0000.22,-000.02,0000.24,25.8,00.5,0668.0,34.3
2016-06-01T00:09:00Z,0000380,01000600,0001.37,0001.55,0001.57,0000.81,0000.02,0000.49,0000.15,0000.22,0000.06,25.8,00.5,0668.0,34.3
2016-06-01T00:10:00Z,0000380,01000600,0002.32,0001.28,0001.38,0000.81,-000.05,0000.03,0000.28,0000.19,-000.04,25.8,00.5,0668.0,34.3
2016-06-01T00:11:00Z,0000380,01000600,0001.81,0001.49,0000.90,0000.24,-000.17,-000.02,-000.12,-000.09,0000.15,25.8,00.4,0667.9,34.3
2016-06-01T00:12:00Z,0000380,01000600,0002.60,0001.70,0001.24,0001.15,-000.06,0000.41,0000.01,0000.26,0000.03,25.7,00.4,0667.9,34.3
2016-06-01T00:13:00Z,0000380,01000600,0002.47,0001.05,0001.56,0000.54,-000.17,0000.41,0000.12,0000.02,0000.11,25.7,00.5,0667.9,34.3
2016-06-01T00:14:00Z,0000380,01000600,0002.94,0001.55,0001.00,0000.39,-000.06,0000.55,0000.06,0000.22,-000.14,25.7,00.5,0668.0,34.3
2016-06-01T00:15:00Z,0000380,01000600,0001.26,0001.60,0001.58,0000.02,0000.30,0000.25,0000.11,-000.04,0000.25,25.6,00.5,0668.0,34.3
2016-06-01T00:16:00Z,0000380,01000600,0002.86,0000.69,0001.54,0000.63,0000.16,0000.39,0000.29,0000.23,0000.33,25.6,00.5,0667.9,34.3
2016-06-01T00:17:00Z,0000380,01000600,0002.38,0001.60,0001.61,0000.19,0000.39,0000.28,-000.01,-000.05,0000.07,25.6,00.5,0668.0,34.3
2016-06-01T00:18:00Z,0000380,01000600,0002.55,0001.36,0001.28,0000.54,0000.02,0000.68,0000.21,0000.17,-000.11,25.5,00.6,0667.9,34.3
2016-06-01T00:19:00Z,0000380,01000600,0002.48,0002.00,0001.16,0000.47,0000.13,0000.16,0000.21,0000.23,0000.23,25.5,00.5,0667.9,34.3
2016-06-01T00:20:00Z,0000380,01000600,0002.73,0001.54,0001.37,0000.36,-000.09,0000.28,0000.07,0000.04,-000.13,25.5,00.6,0667.8,34.3
2016-06-01T00:21:00Z,0000380,01000600,0002.67,0001.40,0000.86,0000.25,0000.00,0000.25,0000.10,0000.01,0000.23,25.5,00.6,0667.8,34.3
2016-06-01T00:22:00Z,0000380,01000600,0002.80,0001.80,0000.51,0000.35,0000.41,-000.08,0000.09,0000.14,0000.21,25.5,00.6,0667.8,34.3
2016-06-01T00:23:00Z,0000380,01000600,0002.69,0001.37,0001.43,0000.62,0000.19,0000.30,0000.15,-000.06,-000.24,25.5,00.6,0667.7,34.3
2016-06-01T00:24:00Z,0000380,01000600,0001.93,0001.28,0001.22,0000.74,0000.19,0000.19,0000.20,0000.29,0000.16,25.5,00.7,0667.7,34.3
2016-06-01T00:25:00Z,0000380,01000600,0002.28,0002.17,0001.41,0000.69,-000.03,0000.44,0000.01,0000.08,0000.11,25.6,00.6,0667.7,34.3
2016-06-01T00:26:00Z,0000380,01000600,0003.00,0002.11,0001.33,-000.22,0000.08,0000.24,0000.31,0000.27,0000.62,25.6,00.6,0667.7,34.3
2016-06-01T00:27:00Z,0000380,01000600,0002.98,0001.50,0000.86,0000.46,0000.27,0000.08,0000.09,0000.15,-000.12,25.6,00.7,0667.6,34.3
2016-06-01T00:28:00Z,0000380,01000600,0001.84,0001.59,0001.17,-000.25,0000.24,0000.08,0000.31,0000.20,0000.06,25.6,00.7,0667.6,34.3
2016-06-01T00:29:00Z,0000380,01000600,0002.03,0001.39,0001.29,0000.35,0000.28,0000.32,0000.00,0000.09,-000.26,25.5,00.7,0667.6,34.3
2016-06-01T00:30:00Z,0000380,01000600,0002.58,0001.67,0000.83,-000.06,0000.47,0000.57,0000.14,0000.28,0000.40,25.5,00.7,0667.6,34.3
2016-06-01T00:31:00Z,0000380,01000600,0003.20,0001.95,0001.29,0000.57,0000.02,0000.49,0000.14,0000.09,0000.33,25.5,00.8,0667.5,34.3
2016-06-01T00:32:00Z,0000380,01000600,0002.61,0002.01,0001.23,0000.79,-000.25,-000.02,0000.17,0000.03,0000.11,25.5,00.8,0667.4,34.3
2016-06-01T00:33:00Z,0000380,01000600,0003.44,0000.72,0001.34,-000.09,-000.11,0000.35,0000.10,0000.23,0000.03,25.4,00.8,0667.5,34.3
2016-06-01T00:34:00Z,0000380,01000600,0002.22,0001.58,0001.28,0000.74,0000.30,0000.24,0000.06,-000.11,-000.18,25.4,00.8,0667.4,34.3
2016-06-01T00:35:00Z,0000380,01000600,0001.81,0001.47,0001.80,0000.57,0000.03,0000.16,0000.14,0000.15,0000.07,25.4,00.9,0667.4,34.3
2016-06-01T00:36:00Z,0000380,01000600,0002.09,0001.78,0001.16,0000.82,-000.02,0000.58,0000.00,0000.04,0000.40,25.4,00.8,0667.4,34.3
2016-06-01T00:37:00Z,0000380,01000600,0002.87,0001.91,0001.86,0000.74,-000.24,0000.49,0000.22,0000.08,-000.20,25.4,00.9,0667.3,34.3
2016-06-01T00:38:00Z,0000380,01000600,0002.36,0001.40,0001.39,0000.55,0000.33,0000.25,0000.02,0000.09,0000.03,25.4,00.9,0667.3,34.3
2016-06-01T00:39:00Z,0000380,01000600,0003.13,0002.00,0001.32,0000.00,-000.09,0000.25,0000.41,0000.02,0000.07,25.5,00.9,0667.2,34.3
2016-06-01T00:40:00Z,0000380,01000600,0001.48,0001.32,0001.50,0001.03,0000.42,-000.03,0000.08,0000.22,0000.40,25.5,00.9,0667.2,34.3
2016-06-01T00:41:00Z,0000380,01000600,0002.28,0001.31,0000.95,0000.77,0000.41,0000.30,-000.02,0000.15,-000.15,25.5,00.9,0667.2,34.3
2016-06-01T00:42:00Z,0000380,01000600,0002.32,0001.85,0001.25,0000.32,0000.02,0000.60,0000.20,0000.05,0000.19,25.5,00.9,0667.2,34.3
2016-06-01T00:43:00Z,0000380,01000600,0003.04,0001.48,0001.63,0000.52,0000.20,0000.30,0000.24,0000.37,0000.11,25.5,00.9,0667.2,34.3
2016-06-01T00:44:00Z,0000380,01000600,0003.00,0001.84,0001.51,0000.43,-000.08,0000.09,0000.08,0000.23,0000.21,25.5,00.9,0667.1,34.3
2016-06-01T00:45:00Z,0000380,01000600,0002.57,0002.22,0000.94,0000.58,0000.02,0000.44,0000.10,0000.18,0000.23,25.5,00.9,0667.1,34.4
2016-06-01T00:46:00Z,0000380,01000600,0002.04,0001.76,0001.47,0000.06,0000.19,0000.00,0000.30,0000.28,0000.11,25.5,00.9,0667.0,34.4
2016-06-01T00:47:00Z,0000380,01000600,0002.88,0001.59,0001.50,0000.44,0000.30,0000.51,0000.10,-000.04,0000.09,25.5,00.9,0667.1,34.4
2016-06-01T00:48:00Z,0000380,01000600,0002.53,0001.55,0001.10,0000.32,-000.03,-000.11,0000.25,-000.06,0000.08,25.5,01.0,0667.1,34.4
2016-06-01T00:49:00Z,0000380,01000600,0002.13,0001.74,0001.44,0000.19,0000.20,0000.57,-000.18,0000.12,0000.07,25.5,01.0,0667.1,34.4
2016-06-01T00:50:00Z,0000380,01000600,0002.30,0001.66,0001.60,-000.24,0000.38,0000.22,0000.18,0000.07,0000.24,25.5,00.9,0667.1,34.4
2016-06-01T00:51:00Z,0000380,01000600,0003.26,0001.23,0001.60,-000.06,0000.27,0000.46,0000.15,-000.03,-000.16,25.5,01.0,0667.0,34.4
2016-06-01T00:52:00Z,0000380,01000600,0002.28,0001.45,0001.36,0000.30,-000.05,0000.51,0000.21,0000.09,0000.06,25.5,01.0,0666.9,34.4
2016-06-01T00:53:00Z,0000380,01000600,0002.36,0001.35,0001.70,0000.13,-000.46,-000.09,-000.19,0000.07,-000.13,25.5,01.0,0666.9,34.4
2016-06-01T00:54:00Z,0000380,01000600,0004.20,0001.47,0001.09,0000.41,-000.13,0000.38,0000.35,0000.07,0000.13,25.5,01.0,0666.9,34.4
2016-06-01T00:55:00Z,0000380,01000600,0002.22,0002.12,0001.12,0000.11,-000.13,0000.27,-000.03,0000.13,-000.15,25.6,01.0,0667.0,34.4
2016-06-01T00:56:00Z,0000380,01000600,0002.26,0001.69,0001.05,0000.43,0000.46,0000.30,0000.16,0000.25,0000.59,25.6,01.0,0666.9,34.4
2016-06-01T00:57:00Z,0000380,40000600,,,,,,,,,,,,0667.0,34.4
2016-06-01T00:58:00Z,0000380,61000600,,,,,,,,,,25.5,00.9,0666.1,34.4
2016-06-01T00:59:00Z,0000380,21000600,,,,,,,,,,25.5,00.9,0666.1,34.4
2016-06-01T01:00:00Z,0000380,20000600,,,,,,,,,,25.5,01.0,0666.1,34.4
2016-06-01T01:01:00Z,0000380,20000600,,,,,,,,,,25.5,01.0,0666.1,34.4
2016-06-01T01:02:00Z,0000380,20000600,,,,,,,,,,25.5,01.0,0666.1,34.4
2016-06-01T01:03:00Z,0000380,60000600,,,,,,,,,,25.5,01.0,0666.1,34.4
2016-06-01T01:04:00Z,0000380,41000600,0003.00,0001.59,0001.16,0000.40,0000.14,0000.02,0000.07,0000.08,0000.11,25.8,01.1,0666.8,34.4
2016-06-01T01:05:00Z,0000380,01000600,0002.26,0001.92,0001.09,0000.14,0000.54,-000.25,0000.19,0000.24,0000.20,25.8,01.1,0666.9,34.4
2016-06-01T01:06:00Z,0000380,01000600,0002.79,0001.80,0000.80,-000.22,0000.20,0000.25,0000.23,0000.16,0000.08,25.8,01.1,0666.9,34.4
2016-06-01T01:07:00Z,0000380,01000600,0002.56,0001.70,0000.90,0000.09,0000.54,0000.25,0000.02,-000.06,-000.02,25.8,01.1,0666.8,34.4
2016-06-01T01:08:00Z,0000380,01000600,0002.64,0002.22,0000.83,-000.17,0000.17,0000.00,0000.08,0000.04,0000.05,25.8,01.1,0666.8,34.4
2016-06-01T01:09:00Z,0000380,01000600,0002.04,0001.78,0000.45,0000.14,0000.06,-000.06,0000.13,0000.25,0000.22,25.9,01.0,0666.7,34.4
2016-06-01T01:10:00Z,0000380,01000600,0003.10,0001.79,0000.75,0000.35,0000.09,0000.13,0000.19,0000.07,-000.08,25.9,01.0,0666.7,34.4
2016-06-01T01:11:00Z,0000380,01000600,0002.46,0001.43,0000.83,0000.66,-000.05,0000.30,0000.37,0000.09,0000.30,25.9,01.0,0666.7,34.4
2016-06-01T01:12:00Z,0000380,01000600,0002.51,0001.31,0000.76,0000.14,0000.47,-000.13,-000.21,0000.12,-000.02,25.9,01.1,0666.6,34.4
2016-06-01T01:13:00Z,0000380,01000600,0002.46,0000.96,0000.56,0000.89,0000.38,0000.03,0000.11,0000.27,0000.16,26.0,01.1,0666.7,34.4
2016-06-01T01:14:00Z,0000380,01000600,0002.28,0001.70,0000.96,0000.38,0000.55,0000.32,0000.08,0000.05,0000.10,26.0,01.2,0666.7,34.4
2016-06-01T01:15:00Z,0000380,01000600,0003.38,0002.16,0000.67,0000.19,0000.36,0000.14,0000.16,0000.07,0000.13,26.0,01.1,0666.6,34.4
2016-06-01T01:16:00Z,0000380,01000600,0002.46,0001.82,0000.82,0000.27,-000.02,0000.19,0000.20,0000.12,0000.13,26.0,01.1,0666.5,34.4
2016-06-01T01:17:00Z,0000380,01000600,0003.15,0001.96,0000.65,0000.13,0000.50,0000.05,0000.03,0000.18,0000.02,26.0,01.1,0666.4,34.4
2016-06-01T01:18:00Z,0000380,01000600,0001.42,0001.57,0000.93,0000.48,0000.32,0000.14,0000.15,0000.06,0000.40,26.0,01.1,0666.5,34.4
2016-06-01T01:19:00Z,0000380,01000600,0002.43,0001.47,0000.62,0000.38,0000.33,0000.11,0000.15,0000.33,0000.12,26.1,01.1,0666.4,34.4
2016-06-01T01:20:00Z,0000380,01000600,0001.98,0001.70,0000.90,0000.33,0000.28,0000.17,0000.22,0000.19,-000.04,26.1,01.1,0666.5,34.4
2016-06-01T01:21:00Z,0000380,01000600,0002.46,0002.01,0001.27,0000.05,0000.06,0000.57,0000.03,-000.05,0000.25,26.1,01.0,0666.3,34.4
2016-06-01T01:22:00Z,0000380,01000600,0002.17,0002.02,0000.78,0000.24,-000.03,-000.05,0000.24,0000.21,0000.19,26.1,01.1,0666.3,34.4
2016-06-01T01:23:00Z,0000380,01000600,0002.15,0002.84,0000.76,0000.52,0000.25,0000.30,0000.18,0000.00,-000.17,26.2,01.1,0666.4,34.4
2016-06-01T01:24:00Z,0000380,01000600,0003.03,0001.94,0000.68,0000.14,0000.03,-000.05,0000.19,0000.31,0000.41,26.1,01.1,0666.2,34.4
2016-06-01T01:25:00Z,0000380,01000600,0002.97,0001.70,0000.97,0000.29,0000.44,0000.16,-000.02,0000.10,-000.21,26.2,01.1,0666.4,34.4
2016-06-01T01:26:00Z,0000380,01000600,0002.89,0001.52,0000.81,0000.03,0000.09,0000.32,0000.03,-000.03,0000.40,26.2,01.0,0666.3,34.4
2016-06-01T01:27:00Z,0000380,01000600,0002.91,0001.56,0000.76,-000.32,0000.69,0000.29,0000.09,0000.09,-000.22,26.2,01.1,0666.3,34.4
2016-06-01T01:28:00Z,0000380,01000600,0002.92,0001.00,0000.70,0000.49,0000.22,-000.19,0000.26,0000.19,0000.15,26.2,01.1,0666.2,34.4
2016-06-01T01:29:00Z,0000380,01000600,0002.85,0001.25,0001.25,-000.36,0000.55,-000.11,0000.06,0000.07,0000.26,26.2,01.1,0666.4,34.4
2016-06-01T01:30:00Z,0000380,01000600,0002.49,0001.59,0001.15,-000.14,0000.03,0000.17,0000.17,0000.19,-000.00,26.2,01.2,0666.4,34.4
2016-06-01T01:31:00Z,0000380,01000600,0002.38,0001.43,0000.31,0000.13,0000.65,0000.25,0000.10,0000.03,0000.07,26.2,01.2,0666.3,34.4
2016-06-01T01:32:00Z,0000380,01000600,0003.14,0001.70,0000.91,0000.40,0000.05,0000.25,0000.32,0000.16,0000.32,26.2,01.1,0666.3,34.4
2016-06-01T01:33:00Z,0000380,01000600,0001.87,0001.87,0001.34,-000.17,0000.69,0000.19,0000.08,0000.37,0000.10,26.2,01.1,0666.4,34.4
2016-06-01T01:34:00Z,0000380,01000600,0002.13,0001.48,0000.85,-000.16,0000.35,0000.00,0000.28,-000.05,0000.21,26.3,01.2,0666.4,34.4
2016-06-01T01:35:00Z,0000380,01000600,0002.07,0001.81,0000.86,0000.16,-000.09,0000.08,-000.05,0000.17,-000.00,26.2,01.2,0666.4,34.4
2016-06-01T01:36:00Z,0000380,01000600,0002.02,0002.15,0000.57,0000.82,0000.41,-000.35,0000.13,0000.01,0000.19,26.2,01.1,0666.5,34.4
2016-06-01T01:37:00Z,0000380,01000600,0003.16,0001.58,0000.60,0000.55,0000.27,-000.11,0000.26,0000.35,0000.00,26.3,01.2,0666.4,34.4
2016-06-01T01:38:00Z,0000380,01000600,0002.79,0002.11,0001.06,0000.48,0000.25,0000.16,0000.12,0000.04,0000.04,26.3,01.1,0666.4,34.4
2016-06-01T01:39:00Z,0000380,01000600,0003.93,0001.35,0000.75,0000.67,0000.19,0000.13,0000.18,0000.09,0000.06,26.3,01.1,0666.4,34.4
2016-06-01T01:40:00Z,0000380,01000600,0003.13,0001.96,0000.51,-000.70,0000.17,0000.38,0000.16,0000.01,0000.22,26.3,01.1,0666.3,34.4
2016-06-01T01:41:00Z,0000380,01000600,0002.67,0001.88,0001.11,0000.40,0000.54,0000.13,0000.02,0000.23,0000.21,26.3,01.1,0666.5,34.4
2016-06-01T01:42:00Z,0000380,01000600,0002.42,0001.28,0000.96,0000.33,0000.41,0000.32,0000.04,-000.02,-000.21,26.3,01.1,0666.4,34.4
2016-06-01T01:43:00Z,0000380,01000600,0002.35,0002.18,0000.85,-000.10,0000.52,0000.19,0000.06,0000.14,0000.24,26.3,01.1,0666.5,34.4
2016-06-01T01:44:00Z,0000380,01000600,0002.29,0002.02,0001.06,0000.38,0000.46,0000.02,0000.06,0000.21,0000.09,26.3,01.1,0666.3,34.4
2016-06-01T01:45:00Z,0000380,01000600,0002.33,0001.33,0001.15,0000.19,0000.09,-000.21,0000.34,0000.03,0000.06,26.3,01.1,0666.4,34.5
2016-06-01T01:46:00Z,0000380,01000600,0002.53,0001.90,0000.63,0000.11,0000.28,0000.13,0000.14,0000.08,-000.15,26.3,01.1,0666.5,34.5
2016-06-01T01:47:00Z,0000380,01000600,0002.57,0002.06,0000.74,0000.48,0000.44,0000.02,0000.15,0000.11,0000.45,26.3,01.2,0666.3,34.5
2016-06-01T01:48:00Z,0000380,01000600,0002.84,0001.74,0000.83,0000.49,-000.13,0000.30,0000.13,0000.14,0000.24,26.3,01.1,0666.3,34.5
2016-06-01T01:49:00Z,0000380,01000600,0002.94,0001.62,0000.57,-000.13,-000.22,-000.11,0000.09,0000.14,-000.06,26.3,01.1,0666.4,34.5
2016-06-01T01:50:00Z,0000380,01000600,0002.25,0002.20,0000.62,0000.36,0000.58,-000.16,0000.25,0000.23,-000.02,26.3,01.1,0666.4,34.5
2016-06-01T01:51:00Z,0000380,01000600,0002.62,0001.56,0000.97,0000.03,0000.68,0000.02,0000.05,0000.05,0000.10,26.4,01.1,0666.4,34.5
2016-06-01T01:52:00Z,0000380,01000600,0002.96,0001.60,0000.92,0000.52,0000.17,-000.44,0000.15,0000.08,0000.21,26.4,01.2,0666.4,34.5
2016-06-01T01:53:00Z,0000380,01000600,0003.65,0001.97,0000.21,0001.11,0000.21,0000.29,0000.23,0000.20,0000.23,26.4,01.1,0666.2,34.5
2016-06-01T01:54:00Z,0000380,01000600,0002.55,0002.15,0001.11,0000.76,0000.02,0000.35,0000.10,-000.02,-000.07,26.4,01.1,0666.2,34.5
2016-06-01T01:55:00Z,0000380,01000600,0003.02,0001.69,0000.96,0000.35,0000.28,-000.05,0000.27,0000.35,0000.10,26.4,01.1,0666.1,34.5
2016-06-01T01:56:00Z,0000380,01000600,0003.19,0001.83,0000.98,0000.51,0000.17,0000.41,-000.06,0000.02,0000.15,26.5,01.2,0666.2,34.5
2016-06-01T01:57:00Z,0000380,40000600,,,,,,,,,,,,0666.1,34.5
2016-06-01T01:58:00Z,0000380,61000600,,,,,,,,,,26.3,01.1,0665.3,34.5
2016-06-01T01:59:00Z,0000380,20000600,,,,,,,,,,26.3,01.1,0665.3,34.5
2016-06-01T02:00:00Z,0000380,20000600,,,,,,,,,,26.3,01.1,0665.3,34.5
2016-06-01T02:01:00Z,0000380,20000600,,,,,,,,,,26.3,01.1,0665.3,34.5
2016-06-01T02:02:00Z,0000380,20000600,,,,,,,,,,26.3,01.1,0665.3,34.5
2016-06-01T02:03:00Z,0000380,60000600,,,,,,,,,,26.3,01.1,0665.3,34.5
2016-06-01T02:04:00Z,0000380,41000600,0002.12,0002.13,0000.91,0000.73,0000.03,0000.08,0000.08,0000.05,0000.37,26.5,01.2,0666.0,34.5
2016-06-01T02:05:00Z,0000380,01000600,0002.33,0001.92,0000.77,0000.37,0000.02,0000.27,0000.17,0000.41,0000.48,26.5,01.2,0666.1,34.5
2016-06-01T02:06:00Z,0000380,01000600,0003.41,0002.17,0001.10,-000.08,-000.36,0000.02,0000.25,0000.04,-000.19,26.5,01.1,0665.9,34.5
2016-06-01T02:07:00Z,0000380,01000600,0003.01,0001.82,0001.24,0000.29,-000.09,0000.11,0000.13,0000.01,0000.14,26.5,01.1,0666.0,34.5
2016-06-01T02:08:00Z,0000380,01000600,0002.14,0001.70,0001.58,0000.11,0000.40,0000.38,0000.05,0000.13,-000.22,26.5,01.1,0666.1,34.5
2016-06-01T02:09:00Z,0000380,01000600,0002.34,0001.82,0001.29,0000.16,0000.22,-000.02,0000.21,0000.35,0000.52,26.5,01.1,0666.0,34.5
2016-06-01T02:10:00Z,0000380,01000600,0002.75,0002.09,0001.02,0000.06,-000.22,0000.17,0000.23,0000.11,-000.00,26.6,01.1,0665.9,34.5
2016-06-01T02:11:00Z,0000380,01000600,0003.53,0002.22,0001.20,0000.49,0000.06,0000.24,0000.13,0000.18,0000.11,26.6,01.2,0665.9,34.5
2016-06-01T02:12:00Z,0000380,01000600,0002.99,0001.99,0001.04,-000.05,-000.21,0000.13,0000.21,-000.08,-000.07,26.6,01.2,0666.1,34.5
2016-06-01T02:13:00Z,0000380,01000600,0002.72,0001.54,0000.83,-000.11,-000.25,0000.16,-000.03,0000.23,0000.34,26.6,01.1,0666.0,34.5
2016-06-01T02:14:00Z,0000380,01000600,0002.02,0002.25,0000.77,0000.19,-000.27,-000.05,0000.17,0000.09,-000.08,26.6,01.1,0666.0,34.5
2016-06-01T02:15:00Z,0000380,01000600,0002.90,0001.90,0001.10,0000.05,0000.60,0000.30,0000.39,0000.41,0000.63,26.7,01.1,0665.8,34.5
2016-06-01T02:16:00Z,0000380,01000600,0002.24,0002.15,0000.90,0000.41,0000.11,0000.24,0000.07,-000.06,-000.26,26.7,01.2,0665.9,34.5
2016-06-01T02:17:00Z,0000380,01000600,0002.53,0001.43,0001.29,-000.24,0000.44,0000.29,0000.11,0000.39,0000.32,26.7,01.2,0665.8,34.5
2016-06-01T02:18:00Z,0000380,01000600,0002.61,0002.00,0000.93,0000.06,0000.00,0000.33,0000.32,0000.06,-000.12,26.7,01.2,0665.8,34.5
2016-06-01T02:19:00Z,0000380,01000600,0001.94,0001.55,0001.25,-000.19,0000.06,0000.27,0000.04,-000.05,-000.02,26.7,01.2,0665.8,34.5
2016-06-01T02:20:00Z,0000380,01000600,0003.02,0002.52,0000.91,0000.59,-000.44,0000.14,0000.16,0000.21,0000.44,26.7,01.2,0665.7,34.5
2016-06-01T02:21:00Z,0000380,01000600,0002.91,0002.07,0001.19,0000.37,-000.09,0000.22,0000.31,0000.24,0000.27,26.7,01.1,0665.7,34.5
2016-06-01T02:22:00Z,0000380,01000600,0003.84,0001.69,0001.41,-000.30,-000.21,0000.21,0000.23,0000.21,0000.14,26.7,01.2,0665.8,34.5
2016-06-01T02:23:00Z,0000380,01000600,0003.08,0001.56,0001.13,0000.25,-000.02,0000.37,-000.02,0000.14,-000.04,26.7,01.1,0665.8,34.5
2016-06-01T02:24:00Z,0000380,01000600,0002.27,0002.37,0001.46,-000.65,-000.08,0000.32,0000.10,0000.12,0000.08,26.7,01.1,0665.8,34.5
2016-06-01T02:25:00Z,0000380,01000600,0001.96,0001.84,0001.13,0000.41,0000.03,0000.35,0000.45,0000.01,0000.20,26.7,01.2,0665.7,34.5
2016-06-01T02:26:00Z,0000380,01000600,0002.69,0001.78,0001.06,-000.35,0000.13,-000.03,0000.04,0000.31,0000.08,26.7,01.1,0665.8,34.5
2016-06-01T02:27:00Z,0000380,01000600,0003.36,0001.86,0000.96,0000.02,0000.06,0000.19,0000.08,0000.13,-000.02,26.7,01.1,0665.7,34.5
2016-06-01T02:28:00Z,0000380,01000600,0002.69,0002.15,0000.79,0000.46,-000.06,0000.02,0000.41,0000.24,0000.41,26.8,01.2,0665.6,34.5
2016-06-01T02:29:00Z,0000380,01000600,0003.69,0002.24,0000.97,-000.22,0000.03,0000.06,0000.09,0000.21,0000.10,26.7,01.1,0665.8,34.5
2016-06-01T02:30:00Z,0000380,01000600,0002.58,0001.91,0000.99,0000.11,-000.14,0000.02,0000.27,0000.09,-000.06,26.8,01.2,0665.8,34.5
2016-06-01T02:31:00Z,0000380,01000600,0003.37,0002.10,0001.35,-000.35,0000.03,0000.40,0000.06,0000.16,0000.42,26.8,01.1,0665.6,34.5
2016-06-01T02:32:00Z,0000380,01000600,0002.58,0002.19,0001.34,0000.27,-000.25,0000.21,0000.07,0000.03,-000.11,26.8,01.1,0665.5,34.5
2016-06-01T02:33:00Z,0000380,01000600,0003.18,0001.86,0001.11,0000.24,-000.05,0000.25,0000.15,0000.21,0000.20,26.8,01.2,0665.5,34.5
2016-06-01T02:34:00Z,0000380,01000600,0003.51,0002.26,0001.11,0000.22,0000.11,0000.27,0000.30,0000.10,0000.09,26.8,01.2,0665.4,34.5
2016-06-01T02:35:00Z,0000380,01000600,0003.07,0002.33,0001.44,0000.62,-000.06,-000.02,0000.03,0000.30,0000.40,26.8,01.2,0665.5,34.5
2016-06-01T02:36:00Z,0000380,01000600,0003.96,0001.78,0000.48,0000.10,0000.24,0000.02,0000.33,0000.18,0000.11,26.8,01.2,0665.6,34.5
2016-06-01T02:37:00Z,0000380,01000600,0003.82,0001.97,0001.06,-000.21,0000.24,0000.21,0000.02,0000.08,-000.11,26.8,01.2,0665.5,34.5
2016-06-01T02:38:00Z,0000380,01000600,0002.65,0001.73,0000.80,0000.45,0000.19,0000.35,-000.08,0000.11,0000.13,26.8,01.2,0665.3,34.5
2016-06-01T02:39:00Z,0000380,01000600,0002.89,0002.06,0001.22,-000.11,0000.25,0000.18,0000.27,0000.00,0000.20,26.8,01.2,0665.4,34.5
2016-06-01T02:40:00Z,0000380,01000600,0003.77,0002.39,0001.15,0000.22,0000.24,0000.18,0000.33,0000.45,0000.24,26.8,01.2,0665.6,34.5
2016-06-01T02:41:00Z,0000380,01000600,0002.65,0002.36,0000.86,0000.16,-000.10,0000.16,0000.18,-000.08,0000.10,26.8,01.2,0665.3,34.5
2016-06-01T02:42:00Z,0000380,01000600,0002.29,0002.21,0000.95,0000.14,0000.40,0000.49,0000.07,0000.31,-000.24,26.8,01.2,0665.4,34.5
2016-06-01T02:43:00Z,0000380,01000600,0003.12,0001.97,0000.84,0000.16,0000.00,-000.05,0000.15,0000.15,0000.55,26.8,01.2,0665.5,34.5
2016-06-01T02:44:00Z,0000380,01000600,0001.99,0002.14,0000.94,0000.16,0000.32,0000.65,0000.28,0000.06,-000.01,26.8,01.3,0665.4,34.5
2016-06-01T02:45:00Z,0000380,01000600,0002.87,0001.87,0001.25,-000.11,0000.17,-000.06,0000.25,0000.18,0000.04,26.8,01.2,0665.3,34.5
2016-06-01T02:46:00Z,0000380,01000600,0001.80,0001.74,0000.95,-000.10,-000.02,0000.29,-000.05,0000.08,0000.05,26.8,01.2,0665.4,34.5
2016-06-01T02:47:00Z,0000380,01000600,0002.09,0001.86,0001.16,0000.75,0000.25,0000.35,0000.34,0000.12,0000.27,26.8,01.2,0665.4,34.5
2016-06-01T02:48:00Z,0000380,01000600,0002.89,0002.37,0001.34,0000.19,0000.10,0000.48,-000.04,0000.10,0000.00,26.8,01.2,0665.2,34.5
2016-06-01T02:49:00Z,0000380,01000600,0003.54,0001.94,0001.28,0000.16,-000.02,0000.19,0000.37,0000.32,0000.20,26.8,01.1,0665.4,34.5
2016-06-01T02:50:00Z,0000380,01000600,0002.28,0001.99,0001.28,0000.11,-000.06,0000.54,-000.05,0000.10,-000.08,26.8,01.2,0665.2,34.5
2016-06-01T02:51:00Z,0000380,01000600,0002.52,0001.71,0001.13,0000.59,0000.02,-000.03,0000.41,0000.12,0000.26,26.8,01.2,0665.2,34.5
2016-06-01T02:52:00Z,0000380,01000600,0004.10,0001.80,0000.78,0000.59,0000.22,0000.16,0000.18,0000.32,0000.24,26.8,01.2,0665.3,34.5
2016-06-01T02:53:00Z,0000380,01000600,0003.42,0002.09,0001.16,-000.02,0000.14,0000.46,0000.15,0000.14,0000.26,26.8,01.1,0665.3,34.5
2016-06-01T02:54:00Z,0000380,01000600,0002.57,0001.67,0000.97,0000.11,0000.52,0000.37,-000.01,0000.10,0000.36,26.8,01.2,0665.1,34.5
2016-06-01T02:55:00Z,0000380,01000600,0003.22,0002.77,0001.02,0000.27,0000.32,0000.41,0000.26,0000.27,0000.14,26.8,01.2,0665.3,34.5
2016-06-01T02:56:00Z,0000380,01000600,0003.56,0002.60,0001.14,0000.64,0000.60,0000.46,0000.39,0000.41,-000.06,26.8,01.2,0665.3,34.5
2016-06-01T02:57:00Z,0000380,40000600,,,,,,,,,,,,0665.1,34.5
2016-06-01T02:58:00Z,0000380,60000600,,,,,,,,,,26.5,01.1,0664.5,34.5
2016-06-01T02:59:00Z,0000380,20000600,,,,,,,,,,26.5,01.1,0664.5,34.5
2016-06-01T03:00:00Z,0000380,20000600,,,,,,,,,,26.5,01.1,0664.5,34.5
2016-06-01T03:01:00Z,0000380,20000600,,,,,,,,,,26.5,01.1,0664.5,34.5
2016-06-01T03:02:00Z,0000380,20000600,,,,,,,,,,26.5,01.1,0664.4,34.5
2016-06-01T03:03:00Z,0000380,60000600,,,,,,,,,,26.6,01.1,0664.4,34.5
2016-06-01T03:04:00Z,0000380,41000600,0002.94,0002.25,0001.51,0000.68,0000.55,0000.10,0000.12,0000.28,-000.08,26.8,01.3,0665.1,34.5
2016-06-01T03:05:00Z,0000380,01000600,0002.51,0002.66,0001.23,0000.60,0000.32,0000.18,0000.15,0000.13,0000.41,26.8,01.2,0665.2,34.5
2016-06-01T03:06:00Z,0000380,01000600,0003.33,0002.74,0001.16,0000.16,0000.48,0000.13,0000.06,0000.07,-000.08,26.8,01.2,0665.3,34.5
2016-06-01T03:07:00Z,0000380,01000600,0003.20,0002.93,0001.16,-000.08,0000.30,0000.03,0000.19,0000.23,-000.06,26.8,01.2,0665.1,34.5
2016-06-01T03:08:00Z,0000380,01000600,0002.94,0002.52,0000.93,0000.21,0000.46,-000.05,0000.25,0000.17,0000.18,26.8,01.2,0665.1,34.5
2016-06-01T03:09:00Z,0000380,01000600,0003.08,0002.74,0000.96,0000.05,0000.40,0000.00,0000.26,0000.21,-000.02,26.8,01.2,0665.2,34.5
2016-06-01T03:10:00Z,0000380,01000600,0002.89,0002.72,0001.67,0000.81,0000.67,0000.43,0000.04,-000.10,0000.27,26.8,01.2,0665.1,34.5
2016-06-01T03:11:00Z,0000380,01000600,0003.09,0002.90,0001.51,0000.73,0000.48,0000.27,0000.11,0000.11,0000.11,26.8,01.2,0665.2,34.5
2016-06-01T03:12:00Z,0000380,01000600,0003.56,0002.22,0001.13,0000.05,0000.21,0000.35,0000.25,0000.31,0000.27,26.8,01.2,0665.0,34.5
2016-06-01T03:13:00Z,0000380,01000600,0003.82,0001.91,0000.85,0000.65,0000.29,-000.21,0000.22,0000.18,0000.28,26.8,01.1,0665.0,34.5
2016-06-01T03:14:00Z,0000380,01000600,0003.88,0002.58,0001.14,-000.24,0000.59,0000.22,0000.24,0000.17,-000.14,26.8,01.2,0665.1,34.5